This is the latest recevied weather packets stored in our database for station/object DK2OO-6. If no packets are shown the sender has not sent any weather packets the latest 10 day(s).
| Time | Temp. | Humidity | Pressure | Rain* | Wind** | Luminosity | Snow |
|---|---|---|---|---|---|---|---|
| 1788187477 | 23.89° C | 46% | 1010.9 hPa | 0 mm | - | - | - |
| 1788186873 | 23.89° C | 47% | 1010.9 hPa | 0 mm | - | - | - |
| 1788185666 | 23.89° C | 47% | 1010.9 hPa | 0 mm | - | - | - |
| 1788182039 | 24.44° C | 49% | 1011.3 hPa | 0 mm | - | - | - |
| 1788179617 | 24.44° C | 50% | 1011.2 hPa | 0 mm | - | - | - |
| 1788178416 | 23.89° C | 52% | 1011.3 hPa | 0 mm | - | - | - |
| 1788175991 | 24.44° C | 55% | 1011.3 hPa | 0 mm | - | - | - |
| 1788175384 | 24.44° C | 54% | 1011.3 hPa | 0 mm | - | - | - |
| 1788174775 | 23.89° C | 55% | 1011.2 hPa | 0 mm | - | - | - |
| 1788174174 | 23.89° C | 55% | 1011.3 hPa | 0 mm | - | - | - |
| 1788171754 | 23.33° C | 58% | 1011.4 hPa | 0 mm | - | - | - |
| 1788170551 | 23.33° C | 60% | 1011.4 hPa | 0 mm | - | - | - |
| 1788168729 | 22.78° C | 63% | 1011.6 hPa | 0 mm | - | - | - |
| 1788168125 | 22.22° C | 64% | 1011.6 hPa | 0 mm | - | - | - |
| 1788167525 | 21.67° C | 67% | 1011.4 hPa | 0 mm | - | - | - |
| 1788166925 | 21.11° C | 69% | 1011.5 hPa | 0 mm | - | - | - |
| 1788165714 | 20° C | 71% | 1011.5 hPa | 0 mm | - | - | - |
| 1788163905 | 19.44° C | 76% | 1011.1 hPa | 0 mm | - | - | - |
| 1788162093 | 17.78° C | 81% | 1011.1 hPa | 0 mm | - | - | - |
| 1788160872 | 17.78° C | 83% | 1011 hPa | 0 mm | - | - | - |
| 1788158453 | 16.11° C | 85% | 1010.9 hPa | 0 mm | - | - | - |
| 1788157848 | 16.11° C | 85% | 1010.8 hPa | 0 mm | - | - | - |
| 1788157248 | 15.56° C | 85% | 1010.7 hPa | 0 mm | - | - | - |
| 1788154833 | 15.56° C | 85% | 1010.4 hPa | 0 mm | - | - | - |
| 1788153618 | 15.56° C | 85% | 1010.5 hPa | 0 mm | - | - | - |
* Rain latest hour (hover to see other rain measurements)
** Current wind speed in m/s (hover to see current wind gust speed)